Погода в Бондаревом

Россия / Республика Хакасия     52°56′03″N   90°29′34″E
темп.,
°C
ветер,
м/с
пор.,
м/с
влажн.,
%
обл.,
%
осадки,
мм/ч
давл.,
гПа
погр.,
м
28 июля, ср
ср2801:00+16юз1181100 0.1 100717
04:00+14з1297100 2.2 1007109
07:00+14зсз1198100 8.2 1008103
10:00+13всв1396100 10.9 1009245
13:00+13всв2392100 12.1 1010300
16:00+15всв238420 0.0 1010410
19:00+16св337514 0.0 1009654
22:00+12св11926 0.0 101110
29 июля, чт
чт2901:00+10ююв119434 0.0 101110
04:00+12ю0090100 0.0 101112
07:00+13ссв1188100 0.0 101169
10:00+16ссв23724 0.0 1010610
13:00+20ссв33573 0.0 10081048
16:00+21св43530 0.0 10081244
19:00+19всв476664 0.0 1008443
22:00+13всв2285100 0.0 100820
30 июля, пт
пт3001:00+11ссв1190100 0.0 100810
04:00+11в1191100 0.0 100810
07:00+13вюв0085100 0.0 100984
10:00+17св226669 0.0 1009704
13:00+21св235373 0.0 10081159
16:00+22св235078 0.1 10081407
19:00+15юз4894100 2.1 1012274
22:00+14ю2393100 2.6 101453
31 июля, сб
сб3101:00+14ююз339299 2.9 101560
04:00+13ююз229399 0.0 101536
07:00+14зюз1290100 0.0 1016105
10:00+15зюз11815 0.0 1017265
13:00+20ссв22624 0.3 10151147
16:00+22св33560 0.8 10141402
19:00+20св35670 0.8 1014263
22:00+14в11842 0.0 101511
1 августа, вс
вс101:00+12ююз22881 0.0 101412
04:00+11ю22922 0.0 101416
07:00+13ююз228713 0.0 1014101
10:00+18з226819 0.0 1013487
13:00+22зсз11525 0.0 1011861
16:00+24св114215 0.0 10101640
19:00+21всв356399 0.0 1010134
22:00+15с118598 0.3 101216